This demonstration page uses our WeatherBlox Daily Observations layout. Learn more.

Left ArrowRight Arrow

39.08367, -84.50855

Hourly Observations for October 31, 2015

Temp ( °F °C ) Dew Point ( °F °C ) Humidity (%) Winds ( mph kmh ) Pressure ( in mb ) Visibility ( mi km ) Precip ( " mm )
12:53 am 00:53 Clear 42 5.6 39 3.9 89 89 Calm 30.16 1021 10 16 0.00 0.00
1:53 am 01:53 Clear 42 5.6 40 4.4 92 92 Calm 30.16 1021 10 16 0.00 0.00
2:53 am 02:53 Clear 40 4.4 39 3.9 97 97 NE 3 6 30.13 1020 10 16 0.00 0.00
3:53 am 03:53 Clear 44 6.7 37 2.8 76 76 VRB 5 7 30.12 1020 10 16 0.00 0.00
4:53 am 04:53 Clear 43 6.1 39 3.9 86 86 ENE 6 9 30.11 1020 10 16 0.00 0.00
5:53 am 05:53 Clear 42 5.6 38 3.3 85 85 Calm 30.12 1020 10 16 0.00 0.00
6:53 am 06:53 Clear 42 5.6 40 4.4 92 92 Calm 30.14 1021 10 16 0.00 0.00
7:53 am 07:53 Clear 43 6.1 38 3.3 82 82 VRB 3 6 30.09 1019 10 16 0.00 0.00
8:53 am 08:53 Sunny 45 7.2 38 3.3 77 77 Calm 30.07 1018 10 16 0.00 0.00
9:53 am 09:53 Sunny 46 7.8 39 3.9 77 77 SSE 6 9 30.10 1019 10 16 0.00 0.00
10:53 am 10:53 Mostly Cloudy 47 8.3 39 3.9 74 74 SSW 6 9 30.10 1019 10 16 0.00 0.00
11:53 am 11:53 Mostly Cloudy 50 10 40 4.4 68 68 SE 6 9 30.05 1018 10 16 0.00 0.00
12:53 pm 12:53 Partly Cloudy 53 11.7 41 5 64 64 SSE 8 13 30.03 1017 10 16 0.00 0.00
1:53 pm 13:53 Mostly Cloudy 56 13.3 42 5.6 60 60 S 8 13 29.99 1016 10 16 0.00 0.00
2:53 pm 14:53 Cloudy 56 13.3 43 6.1 62 62 S 9 15 29.95 1014 10 16 0.00 0.00
3:53 pm 15:53 Cloudy 56 13.3 45 7.2 67 67 SSE 7 11 29.93 1013 10 16 0.00 0.00
4:53 pm 16:53 Cloudy with Light Rain 56 13.3 46 7.8 70 70 S 7 11 29.91 1013 10 16 0.00 0.03
5:53 pm 17:53 Mostly Cloudy 57 13.9 47 8.3 69 69 S 10 17 29.88 1012 10 16 0.00 0.03
6:53 pm 18:53 Mostly Cloudy 58 14.4 47 8.3 67 67 S 10 17 29.84 1010 10 16 0.00 0.00
7:53 pm 19:53 Cloudy 58 14.4 48 8.9 70 70 SW 7 11 29.88 1012 10 16 0.00 0.00
8:53 pm 20:53 Cloudy 55 12.8 49 9.4 80 80 Calm 29.87 1012 10 16 0.00 0.00
9:53 pm 21:53 Cloudy with Light Rain 55 12.8 50 10 83 83 WNW 3 6 29.88 1012 10 16 0.00 0.03
10:53 pm 22:53 Cloudy with Light Rain 54 12.2 52 11.1 93 93 SSW 8 13 29.90 1012 4 6 0.02 0.51

Powered by AerisWeather